[[{"header":{"parameterUnit":"m.s-1","parameterCategory":1,"la1":30.2991,"la2":30.254,"lo1":-89.0895,"lo2":-89.0444,"dy":0.0017,"dx":0.0017,"nx":28,"ny":28,"refTime":"2024-08-19T21:00:00:Z","depth":0,"parameterNumber":2,"parameterNumberName":"U-component_of_WINDS"},"data":[0,0,0,0,0,0,0,0,0,0,0,0,0,0,0,0,0,0,0,0,0,0,0,0,0,0,0,0,0,0,0,0,0,0,0,0,0,0,0,0,0,0,0,0,0,0,0,0,0,0,0,0,0,0,0,0,0,0,-2.9941,-2.9942,0,-2.9963,-2.9964,-2.9964,-2.989,-2.9888,-2.9885,-2.9883,-2.9907,-2.9909,-2.9912,0,0,0,0,0,0,0,0,0,0,0,0,0,-2.9835,-2.9838,-2.9941,-2.9942,-2.9942,-2.9963,-2.9964,-2.9964,-2.989,-2.9888,-2.9885,-2.9882,-2.9906,-2.9909,-2.9912,0,0,0,0,0,0,0,0,0,0,0,0,0,-2.9872,-2.9838,-2.9941,-2.9908,-2.9905,-2.9963,-2.9964,-2.9964,-2.9891,-2.9887,-2.9884,-2.9881,-2.9905,-2.9909,-2.9913,-3.0005,0,0,-2.9925,-2.9927,0,0,0,0,0,0,0,0,-2.987,-2.9876,-2.9912,-2.991,-2.9907,-2.992,-2.9935,-2.9978,-2.9892,-2.9896,-2.9883,-2.9879,-2.9914,-2.9917,-2.9929,-3.0006,-3.0007,-2.9925,-2.9928,-2.9929,-2.9931,0,0,0,0,0,0,0,-2.9867,-2.9874,-2.995,-2.9913,-2.991,-2.9891,-2.9893,-2.9943,-2.9924,-2.9896,-2.989,-2.9894,-2.9912,-2.9925,-2.9929,-3.0007,-2.9925,-2.9929,-2.9931,-2.9933,-3.0161,-3.0164,0,0,0,0,0,0,-2.9869,-2.9873,-2.9949,-2.9951,-2.988,-2.9896,-2.9898,-2.992,-2.9923,-2.992,-2.9897,-2.989,-2.992,-2.9924,-2.9929,-3.0038,-2.9929,-2.9933,-2.9936,-3.0157,-3.0162,-3.0166,0,0,0,0,0,0,-2.9867,-2.9877,-2.9948,-2.991,-2.9918,-2.9901,-2.9927,-2.9922,-2.9935,-2.9924,-2.992,-2.9913,-2.9917,-2.9923,-2.9986,-3.0037,-2.9935,-2.9939,-3.0153,-3.0159,-3.0164,-3.0255,0,0,0,0,0,0,-2.9865,-2.9876,-2.9911,-2.9912,-2.992,-3.0006,-2.993,-2.9925,-2.9942,-2.9934,-2.9938,-2.9936,-2.9915,-2.9981,-2.999,-3.0041,-2.9942,-3.0148,-3.0156,-3.0162,-3.0248,-3.0263,-3.0276,0,0,0,0,0,-2.9861,-2.9936,-2.9914,-2.9923,-2.9964,-3.0009,-3.0014,-2.9988,-2.9946,-2.9981,-2.9974,-2.9936,-3.003,-2.9988,-2.9998,-3.0051,-3.0145,-3.0154,-3.0161,-3.0241,-3.026,-3.0276,0,0,0,0,0,0,-2.9943,-2.9936,-2.9911,-2.9988,-3.0,-2.9996,-3.004,-3.0009,-3.0032,-3.0024,-2.999,-2.9992,-3.0061,-3.0062,-3.0015,-3.014,-3.008,-3.0091,-3.0137,-3.0155,-3.0169,-3.0169,-2.9945,0,0,0,0,0,-2.997,-3.0007,-2.9999,-3.0068,-3.0075,-3.0057,-3.0075,-3.0054,-3.0065,-3.0069,-3.0067,-3.0079,-3.0111,-3.0133,-3.0162,-3.0247,-3.0247,-3.0288,-3.0302,-3.0314,-3.0324,-3.037,-3.0388,-3.0192,-3.0192,-3.0192,0,0,-3.0027,-3.0027,-3.0053,-3.0085,-3.0091,-3.0131,-3.0061,-3.0106,-3.0135,-3.0076,-3.0136,-3.0134,-3.0145,-3.022,-3.0253,-3.0222,-3.0378,-3.0325,-3.0334,-3.0338,-3.038,-3.0398,-3.0415,-3.0198,-3.0197,-3.0196,0,0,-3.015,-3.0154,-3.0212,-3.022,-3.023,-3.0217,-3.0232,-3.0233,-3.0229,-3.0288,-3.0245,-3.0279,-3.0335,-3.0345,-3.0357,-3.0483,-3.0449,-3.0493,-3.0569,-3.0614,-3.0629,-3.0643,-3.0689,-3.0706,-3.0503,-3.0503,-3.0503,0,-3.0219,-3.0277,-3.0246,-3.0294,-3.031,-3.0258,-3.0317,-3.0325,-3.0345,-3.0357,-3.0323,-3.0392,-3.0395,-3.0472,-3.0503,-3.0514,-3.0529,-3.0494,-3.0629,-3.0643,-3.0655,-3.0698,-3.0716,-3.0509,-3.0508,-3.0508,-3.0507,0,-3.0362,-3.0402,-3.0448,-3.0468,-3.0489,-3.0542,-3.052,-3.0544,-3.0521,-3.0511,-3.0572,-3.0574,-3.0603,-3.0619,-3.0597,-3.0693,-3.0674,-3.0635,-3.0575,-3.0679,-3.072,-3.0736,-3.0516,-3.0514,-3.0513,-3.0512,0,0,-3.0539,-3.0541,-3.0558,-3.0567,-3.0574,-3.0605,-3.0655,-3.0683,-3.0705,-3.072,-3.0762,-3.081,-3.0774,-3.0788,-3.0766,-3.0805,-3.0906,-3.0762,-3.0761,-3.0789,-3.1012,-3.1042,-3.1062,-3.0883,-3.0886,-3.0888,-3.1012,0,-3.0661,-3.0748,-3.0722,-3.0809,-3.0847,-3.0797,-3.0841,-3.085,-3.0843,-3.0873,-3.0864,-3.09,-3.0849,-3.0857,-3.0893,-3.0886,-3.0951,-3.0877,-3.0922,-3.0924,-3.0923,-3.1083,-3.1115,-3.1232,-3.1027,-3.103,-3.1032,0,-3.0816,-3.0836,-3.0928,-3.0929,-3.0943,-3.0984,-3.1007,-3.1036,-3.1046,-3.1037,-3.1053,-3.1023,-3.1072,-3.1011,-3.1079,-3.1029,-3.1046,-3.1045,-3.1049,-3.1054,-3.0986,-3.1093,-3.1268,-3.1286,-3.1056,-3.1054,-3.1052,0,-3.0937,-3.0988,-3.1049,-3.1058,-3.106,-3.1089,-3.1092,-3.1098,-3.1116,-3.1136,-3.1148,-3.1173,-3.1188,-3.1208,-3.1186,-3.1143,-3.1258,-3.1194,-3.1253,-3.1254,-3.1281,-3.128,-3.1462,-3.129,-3.1289,-3.1289,-3.1289,0,-3.1077,-3.1135,-3.1104,-3.1142,-3.1205,-3.1174,-3.1238,-3.1234,-3.124,-3.1276,-3.1235,-3.127,-3.1237,-3.127,-3.1252,-3.1312,-3.1318,-3.1313,-3.1308,-3.1318,-3.1319,-3.133,-3.1322,-3.1294,-3.1293,-3.1292,-3.1291,0,-3.1224,-3.1205,-3.1269,-3.1266,-3.1266,-3.1313,-3.131,-3.1345,-3.1334,-3.1381,-3.139,-3.1372,-3.1408,-3.1387,-3.1424,-3.1412,-3.149,-3.1473,-3.1487,-3.1483,-3.1544,-3.1539,-3.1741,-3.1766,-3.1576,-3.1578,-3.1579,0,-3.1316,-3.1359,-3.136,-3.1382,-3.1387,-3.1422,-3.144,-3.1411,-3.1431,-3.1445,-3.1479,-3.151,-3.1535,-3.1594,-3.1585,-3.1612,-3.1597,-3.1665,-3.1601,-3.1609,-3.1599,-3.1597,-3.1602,-3.1679,-3.1681,-3.1683,-3.1685,0,-3.148,-3.1469,-3.1497,-3.1522,-3.1545,-3.1563,-3.1578,-3.1597,-3.1568,-3.1594,-3.1629,-3.1648,-3.1685,-3.1718,-3.1741,-3.1743,-3.171,-3.1705,-3.172,-3.1731,-3.1738,-3.1736,-3.1524,-3.1701,-3.1699,-3.1698,-3.1697,-3.1696,-3.1603,-3.164,-3.1646,-3.1679,-3.1687,-3.1701,-3.1734,-3.1727,-3.1756,-3.1784,-3.1764,-3.1807,-3.1815,-3.1843,-3.1849,-3.1882,-3.1854,-3.1876,-3.1882,-3.1888,-3.1897,-3.1731,-3.1886,-3.1885,-3.1885,-3.1885,-3.1884,0,-3.1766,-3.1768,-3.1798,-3.182,-3.1846,-3.1811,-3.1825,-3.1849,-3.1887,-3.1897,-3.1921,-3.1963,-3.1994,-3.1987,-3.2015,-3.2043,-3.2028,-3.2051,-3.2049,-3.2051,-3.192,-3.1904,-3.2062,-3.2062,-3.2062,-3.2062,-3.2062,-3.2062,-3.1855,-3.1915,-3.1904,-3.1967,-3.1968,-3.201,-3.2021,-3.2034,-3.2042,-3.209,-3.2116,-3.211,-3.2114,-3.2141,-3.2168,-3.2165,-3.2178,-3.2207,-3.2199,-3.2077,-3.206,-3.2043,-3.2028,-3.221,-3.221,-3.2327,-3.2328,-3.2329]},{"header":{"parameterUnit":"m.s-1","parameterCategory":1,"la1":30.2991,"la2":30.254,"lo1":-89.0895,"lo2":-89.0444,"dy":0.0017,"dx":0.0017,"nx":28,"ny":28,"refTime":"2024-08-19T21:00:00:Z","depth":0,"parameterNumber":3,"parameterNumberName":"V-component_of_WINDS"},"data":[0,0,0,0,0,0,0,0,0,0,0,0,0,0,0,0,0,0,0,0,0,0,0,0,0,0,0,0,0,0,0,0,0,0,0,0,0,0,0,0,0,0,0,0,0,0,0,0,0,0,0,0,0,0,0,0,0,0,-3.0285,-3.0285,0,-3.0288,-3.0288,-3.0288,-3.0238,-3.0237,-3.0236,-3.0234,-3.0238,-3.0239,-3.0241,0,0,0,0,0,0,0,0,0,0,0,0,0,-3.0235,-3.0236,-3.0285,-3.0285,-3.0285,-3.0288,-3.0288,-3.0288,-3.0239,-3.0237,-3.0235,-3.0234,-3.0237,-3.0239,-3.0241,0,0,0,0,0,0,0,0,0,0,0,0,0,-3.0249,-3.0236,-3.0285,-3.026,-3.0258,-3.0288,-3.0288,-3.0288,-3.0239,-3.0237,-3.0235,-3.0233,-3.0237,-3.0239,-3.0241,-3.0294,0,0,-3.0247,-3.0248,0,0,0,0,0,0,0,0,-3.0248,-3.0251,-3.0264,-3.0262,-3.026,-3.0261,-3.0272,-3.029,-3.024,-3.0246,-3.0234,-3.0232,-3.0247,-3.0248,-3.0253,-3.0294,-3.0294,-3.0247,-3.0248,-3.0249,-3.025,0,0,0,0,0,0,0,-3.0247,-3.0251,-3.0286,-3.0264,-3.0262,-3.0249,-3.0249,-3.0275,-3.0258,-3.0246,-3.0242,-3.0243,-3.0246,-3.0251,-3.0253,-3.0294,-3.0247,-3.0249,-3.025,-3.0251,-3.0378,-3.038,0,0,0,0,0,0,-3.025,-3.025,-3.0286,-3.0286,-3.0249,-3.0252,-3.0252,-3.0262,-3.0258,-3.0255,-3.0245,-3.0241,-3.0249,-3.0251,-3.0253,-3.0314,-3.0249,-3.0251,-3.0252,-3.0376,-3.0378,-3.0381,0,0,0,0,0,0,-3.0249,-3.0253,-3.0286,-3.0267,-3.027,-3.0255,-3.0267,-3.0264,-3.0269,-3.0257,-3.0254,-3.0254,-3.0247,-3.025,-3.0284,-3.0314,-3.0252,-3.0254,-3.0373,-3.0376,-3.0379,-3.0438,0,0,0,0,0,0,-3.0248,-3.0253,-3.0274,-3.0268,-3.0271,-3.0317,-3.0269,-3.0265,-3.0273,-3.0268,-3.0265,-3.0262,-3.0246,-3.0281,-3.0286,-3.0315,-3.0255,-3.037,-3.0375,-3.0378,-3.0433,-3.0443,-3.0451,0,0,0,0,0,-3.0246,-3.029,-3.0275,-3.028,-3.0296,-3.0319,-3.0321,-3.0301,-3.0276,-3.0296,-3.0288,-3.0262,-3.031,-3.0285,-3.029,-3.0321,-3.0368,-3.0373,-3.0378,-3.0429,-3.0441,-3.0451,0,0,0,0,0,0,-3.03,-3.0289,-3.0272,-3.0316,-3.0319,-3.031,-3.0335,-3.0314,-3.0325,-3.0319,-3.0294,-3.0294,-3.0332,-3.0329,-3.0302,-3.0371,-3.0334,-3.034,-3.0372,-3.0383,-3.0391,-3.0392,-3.0257,0,0,0,0,0,-3.0317,-3.0336,-3.0325,-3.0365,-3.0367,-3.0351,-3.036,-3.0345,-3.0347,-3.0348,-3.0342,-3.0345,-3.036,-3.0371,-3.0385,-3.0432,-3.0431,-3.0456,-3.0465,-3.0472,-3.0478,-3.0503,-3.0514,-3.0396,-3.0396,-3.0396,0,0,-3.0352,-3.0348,-3.0362,-3.0376,-3.0376,-3.0397,-3.0352,-3.0376,-3.0391,-3.0351,-3.0383,-3.0379,-3.0381,-3.0422,-3.0439,-3.0421,-3.051,-3.0478,-3.0484,-3.0486,-3.0509,-3.052,-3.053,-3.04,-3.0399,-3.0399,0,0,-3.0427,-3.0426,-3.0459,-3.046,-3.0461,-3.045,-3.0458,-3.0453,-3.0449,-3.048,-3.0451,-3.0468,-3.0495,-3.0497,-3.0502,-3.0577,-3.0554,-3.0582,-3.0628,-3.0653,-3.0662,-3.067,-3.0697,-3.0707,-3.0587,-3.0587,-3.0588,0,-3.0471,-3.0501,-3.0478,-3.0504,-3.051,-3.0475,-3.0508,-3.051,-3.0516,-3.0521,-3.05,-3.0533,-3.0531,-3.0572,-3.0591,-3.0595,-3.0604,-3.0582,-3.0662,-3.067,-3.0677,-3.0703,-3.0713,-3.0591,-3.059,-3.059,-3.059,0,-3.0554,-3.0575,-3.0601,-3.0608,-3.0617,-3.0646,-3.0628,-3.064,-3.0624,-3.0615,-3.0647,-3.0644,-3.0656,-3.0664,-3.0648,-3.0703,-3.0691,-3.0667,-3.0629,-3.0692,-3.0716,-3.0726,-3.0596,-3.0594,-3.0593,-3.0593,0,0,-3.0664,-3.0657,-3.0667,-3.0669,-3.0668,-3.0683,-3.0711,-3.0722,-3.0733,-3.0738,-3.076,-3.0784,-3.0761,-3.0766,-3.075,-3.0772,-3.0831,-3.0744,-3.0744,-3.0761,-3.0891,-3.091,-3.0922,-3.0816,-3.0817,-3.0819,-3.0891,0,-3.0737,-3.0784,-3.0764,-3.0812,-3.0831,-3.0797,-3.0821,-3.0822,-3.0814,-3.0829,-3.082,-3.0837,-3.0805,-3.0809,-3.0828,-3.082,-3.0857,-3.0814,-3.0836,-3.0837,-3.0838,-3.0934,-3.0955,-3.1023,-3.09,-3.0902,-3.0903,0,-3.0829,-3.0838,-3.0888,-3.0882,-3.0889,-3.0911,-3.092,-3.0934,-3.0935,-3.0928,-3.0934,-3.0912,-3.0938,-3.0901,-3.0936,-3.0907,-3.0915,-3.0912,-3.0914,-3.0916,-3.0875,-3.094,-3.1045,-3.1056,-3.0917,-3.0916,-3.0915,0,-3.0905,-3.0929,-3.0961,-3.0964,-3.0959,-3.0975,-3.0973,-3.0972,-3.098,-3.0987,-3.0992,-3.1003,-3.1009,-3.1018,-3.1,-3.0974,-3.1038,-3.0999,-3.1033,-3.1034,-3.1049,-3.1048,-3.1158,-3.1053,-3.1053,-3.1053,-3.1052,0,-3.0989,-3.1021,-3.0995,-3.1016,-3.1051,-3.1027,-3.1062,-3.1057,-3.1056,-3.1074,-3.1045,-3.1063,-3.1039,-3.1054,-3.104,-3.1072,-3.1075,-3.107,-3.1066,-3.1073,-3.1074,-3.1078,-3.1073,-3.1055,-3.1055,-3.1054,-3.1054,0,-3.108,-3.1064,-3.1098,-3.1089,-3.1088,-3.1114,-3.1107,-3.1125,-3.1115,-3.1138,-3.1143,-3.1127,-3.1143,-3.1126,-3.1142,-3.1133,-3.1175,-3.1164,-3.1175,-3.1172,-3.1208,-3.1205,-3.1325,-3.1339,-3.1224,-3.1226,-3.1226,0,-3.1135,-3.1159,-3.1153,-3.1163,-3.1163,-3.118,-3.1188,-3.1166,-3.1176,-3.1178,-3.1196,-3.121,-3.1221,-3.1249,-3.1239,-3.125,-3.124,-3.1281,-3.1241,-3.1248,-3.1241,-3.124,-3.1242,-3.1289,-3.129,-3.1291,-3.1292,0,-3.1235,-3.1226,-3.1238,-3.1249,-3.1259,-3.1266,-3.127,-3.128,-3.1257,-3.1269,-3.1286,-3.1294,-3.131,-3.1324,-3.1333,-3.1331,-3.1308,-3.1305,-3.1313,-3.1321,-3.1327,-3.1325,-3.1198,-3.1302,-3.1301,-3.1301,-3.13,-3.13,-3.131,-3.133,-3.1328,-3.1343,-3.1344,-3.1349,-3.1366,-3.1357,-3.1371,-3.1382,-3.1368,-3.1389,-3.1388,-3.1397,-3.1398,-3.1414,-3.1396,-3.1409,-3.1412,-3.1416,-3.1421,-3.1324,-3.1415,-3.1415,-3.1414,-3.1414,-3.1414,0,-3.1409,-3.1406,-3.142,-3.1427,-3.1439,-3.1416,-3.1419,-3.1431,-3.145,-3.1451,-3.1461,-3.1481,-3.1494,-3.1485,-3.1497,-3.1511,-3.1501,-3.1515,-3.1514,-3.1514,-3.1436,-3.1427,-3.1523,-3.1523,-3.1523,-3.1523,-3.1523,-3.1523,-3.1462,-3.1493,-3.1484,-3.1516,-3.1513,-3.1533,-3.1537,-3.1541,-3.1542,-3.1565,-3.1576,-3.1569,-3.1566,-3.1577,-3.1589,-3.1586,-3.1592,-3.161,-3.1603,-3.153,-3.152,-3.1509,-3.1501,-3.1611,-3.1611,-3.168,-3.1681,-3.1681]}]]